Location: Unspecified
(0.0000°N, 0.0000°E)
Time: 06:59:45
(UTC+00:00)

Vanguard 2 Rocket - Pass Details

Date: 10 October 2022
Orbit: 555 x 3321 km, 32.9° (Epoch: 06 December)

Event Time Altitude Azimuth Distance (km) Brightness Sun altitude
Rises 22:15:16 0° 299° (WNW) 7,154 11.7 -66.1°
Reaches altitude 10° 22:25:31 10° 324° (NW) 5,633 10.9 -68.6°
Enters shadow 22:27:02 11° 329° (NNW) 5,445 10.8 -68.9°
Maximum altitude 22:31:14 12° 345° (NNW) 5,016 - -69.9°
Drops below altitude 10° 22:36:12 10° 6° (N) 4,775 - -71.1°
Sets 22:42:56 0° 35° (NE) 5,074 - -72.6°
